User: anonymous   Login
Location: Unspecified
(0.0000°N, 0.0000°E)
Time: 02:42:52
(UTC+00:00)
Language:

GALILEO 12 (269) - Orbit

View from above orbital plane
View from above orbital plane
View from above satellite
View from above satellite

Ground track
Ground track

The orbit data is extracted from the following two-line orbital elements,

1 41174U 15079A   19051.38989866 -.00000001  00000-0  00000+0 0  9993
2 41174  54.9374 174.7833 0003757 309.3543  50.5666  1.70473753 19772
Epoch (UTC): 20 February 2019 09:21:27
Eccentricity: 0.0003757
inclination: 54.9374°
perigee height: 23211 km
apogee height: 23233 km
right ascension of ascending node: 174.7833°
argument of perigee: 309.3543°
revolutions per day: 1.70473753
mean anomaly at epoch: 50.5666°
orbit number at epoch: 1977

The dashed part of the orbit path shows where the satellite is in the earth's shadow,  

DLR